#timestamp,LO_Frequency,Hit,StdDev 
1603449975.1,286046986.3,P
1603449976.0,286046986.3,P
1603449995.8,286046985.0,P
1603450015.6,286046983.7,Y
1603450035.5,286047000.5,P
1603450055.3,286046998.3,N
1603450075.1,286046998.6,N
1603450095.9,286046998.9,N
1603450115.7,286047000.9,N
1603450135.6,286047000.2,N
1603450155.4,286047000.3,N
1603450175.2,286047000.5,N
1603450195.1,286047000.0,N
1603450196.0,286047000.0,N
1603450215.8,286047000.4,N
1603450235.6,286047001.0,N
1603450255.5,286047000.7,N
1603450275.3,286046998.8,N
1603450295.2,286047000.5,N
1603450315.9,286047001.1,N
1603450335.7,286046999.2,N
1603450355.6,286046998.6,N
1603450375.4,286046996.6,N
1603450395.2,286046997.1,N
1603450415.1,286046997.5,N
1603450416.0,286046997.5,N
1603450435.8,286046995.5,N
1603450455.7,286046997.5,N
1603450475.5,286046999.2,N
1603450495.3,286047002.0,N
1603450515.2,286047004.2,N
1603450535.0,286046999.8,N
1603450535.9,286046999.8,N
1603450555.8,286047002.1,N
1603450575.6,286047000.1,N
1603450595.4,286047002.4,N
1603450615.3,286047004.1,N
1603450635.1,286047001.7,N
1603450655.8,286047000.2,N
1603450675.7,286046998.1,N
1603450695.5,286046997.6,N
1603450715.4,286046995.4,N
1603450735.2,286046995.4,N
1603450755.0,286046996.4,N
1603450755.9,286046996.4,N
1603450775.8,286046993.9,N
1603450795.6,286046994.6,N
